Fort Indiantown Gap, PA

4:21 PM EST on December 11, 2019 (GMT -0500)
Muir Army Air Field

Weather History for KMUI - October, 2019

Change the Weather History Date:

Tuesday, October 29, 2019

  Actual Average Record
Temperature  
Mean Temperature 56 °F -  
Max Temperature 60 °F 57 °F 71 °F (1999)
Min Temperature 53 °F 40 °F 24 °F (2001)
Degree Days  
Heating Degree Days 8    
Growing Degree Days 6 (Base 50)    
Moisture  
Dew Point 49 °F    
Average Humidity 75    
Maximum Humidity 88    
Minimum Humidity 65    
Precipitation  
Precipitation 0.00 in - - ()
Sea Level Pressure  
Sea Level Pressure 30.27 in    
Wind  
Wind Speed 1 mph (ESE)    
Max Wind Speed 6 mph    
Max Gust Speed -    
Visibility 10 miles    
Events      
Averages and records for this station are not official NWS values.
T = Trace of Precipitation, MM = Missing Value Source: NWS Daily Summary

Daily Weather History Graph

Daily Weather History Graph

Search for Another Location

Airport or City:

Astronomy

Oct. 29, 2019 Rise Set
Actual Time 7:32 AM EDT 6:07 PM EDT
Civil Twilight 7:04 AM EDT 6:35 PM EDT
Nautical Twilight 6:32 AM EDT 7:07 PM EDT
Astronomical Twilight 6:00 AM EDT 7:38 PM EDT
Moon 9:03 AM EDT (10/29) 7:29 PM EDT (10/29)
Length of Visible Light 11h 30m
Length of Day
10h 34m
Waxing Crescent, 3% of the Moon is Illuminated
Oct 29
Waxing Crescent
Nov 4
First Quarter
Nov 12
Full
Nov 19
Last Quarter
Nov 26
New

Hourly Weather History & Observations

Time (EDT) Temp. Dew Point Humidity Pressure Visibility Wind Dir Wind Speed Gust Speed Precip Events Conditions
12:56 AM 54.7 °F 50.2 °F 85% 30.27 in 10.0 mi Calm Calm - N/A   Overcast
1:52 AM 55.4 °F 50.0 °F 82% 30.27 in 10.0 mi Calm Calm - N/A   Overcast
1:56 AM 54.7 °F 50.5 °F 86% 30.27 in 10.0 mi Calm Calm - N/A   Overcast
2:04 AM 55.4 °F 51.8 °F 88% 30.27 in 10.0 mi Calm Calm - N/A   Overcast
2:56 AM 54.7 °F 50.9 °F 87% 30.26 in 10.0 mi East 4.6 mph - N/A   Overcast
3:56 AM 55.0 °F 49.6 °F 82% 30.27 in 10.0 mi Calm Calm - N/A   Overcast
4:56 AM 54.5 °F 48.4 °F 80% 30.26 in 10.0 mi ENE 3.5 mph - N/A   Overcast
5:56 AM 54.0 °F 48.2 °F 81% 30.26 in 10.0 mi NNE 4.6 mph - N/A   Overcast
6:56 AM 54.1 °F 47.8 °F 79% 30.27 in 10.0 mi Calm Calm - N/A   Overcast
7:56 AM 53.6 °F 48.6 °F 83% 30.27 in 10.0 mi Calm Calm - N/A   Overcast
8:56 AM 54.5 °F 49.5 °F 83% 30.30 in 10.0 mi Calm Calm - N/A   Overcast
9:44 AM 55.4 °F 48.2 °F 77% 30.30 in 10.0 mi Calm Calm - N/A   Overcast
9:56 AM 55.6 °F 48.2 °F 76% 30.30 in 10.0 mi ENE 3.5 mph - N/A   Overcast
10:56 AM 57.0 °F 48.7 °F 74% 30.30 in 10.0 mi Calm Calm - N/A   Overcast
11:28 AM 59.0 °F 48.2 °F 67% 30.29 in 10.0 mi East 3.5 mph - N/A   Overcast
11:36 AM 59.0 °F 48.2 °F 67% 30.29 in 10.0 mi SE 5.8 mph - N/A   Overcast
11:56 AM 59.4 °F 48.0 °F 66% 30.29 in 10.0 mi South 4.6 mph - N/A   Overcast
12:56 PM 59.7 °F 48.4 °F 66% 30.28 in 10.0 mi SSE 4.6 mph - N/A   Overcast
1:56 PM 60.1 °F 49.1 °F 67% 30.26 in 10.0 mi SSE 4.6 mph - N/A   Overcast
2:56 PM 60.4 °F 49.1 °F 66% 30.25 in 10.0 mi SSE 3.5 mph - N/A   Overcast
3:56 PM 60.8 °F 48.9 °F 65% 30.25 in 10.0 mi SSE 5.8 mph - N/A   Overcast
4:56 PM 60.4 °F 49.5 °F 67% 30.26 in 10.0 mi Calm Calm - N/A   Overcast
5:56 PM 60.1 °F 49.5 °F 68% 30.26 in 10.0 mi Calm Calm - N/A   Overcast
6:56 PM 59.2 °F 49.8 °F 71% 30.26 in 10.0 mi Calm Calm - N/A   Overcast
7:56 PM 59.7 °F 50.0 °F 70% 30.26 in 10.0 mi Calm Calm - N/A   Overcast
8:56 PM 59.0 °F 50.4 °F 73% 30.26 in 10.0 mi Calm Calm - N/A   Overcast
9:56 PM 58.5 °F 50.2 °F 74% 30.28 in 10.0 mi Calm Calm - N/A   Mostly Cloudy